Simultaneous Nadir Overpasses (SNOs) Predictions

Prediction of SNOs between METOP-B and TERRA Satellite Orbit:

Table of predicted SNOs for the next 14.0 days since TLE Epoch: 2/23/2019
Index Date (METOP-B) Time (METOP-B) Lat,Lon (METOP-B) SZA (METOP-B ) Date (TERRA) Time (TERRA) Lat,Lon (TERRA) SZA (TERRA ) Distance(km) Time Diff (sec)
1 02/24/2019 04:24:40 -81.29, -19.18 86.80 02/24/2019 04:24:53 -81.30, -19.08 86.78 1.94 13
2 02/24/2019 05:15:20 81.29, 148.41 93.22 02/24/2019 05:14:20 81.28, 148.28 93.17 2.44 60
3 02/26/2019 23:59:03 -81.29, 47.27 87.83 02/26/2019 23:59:07 -81.29, 47.23 87.83 0.73 4
4 02/27/2019 00:49:43 81.29,-145.14 92.19 02/27/2019 00:48:33 81.30,-145.06 92.17 1.42 70
5 03/01/2019 18:42:47 81.28, -54.00 91.11 03/01/2019 18:43:55 81.28, -54.16 91.12 2.78 68
6 03/01/2019 19:33:27 -81.29, 113.71 88.87 03/01/2019 19:33:21 -81.30, 113.83 88.85 2.28 6
7 03/04/2019 14:17:11 81.29, 12.42 90.05 03/04/2019 14:18:09 81.28, 12.32 90.06 1.77 58
8 03/04/2019 15:07:51 -81.29,-179.87 89.92 03/04/2019 15:07:36 -81.28, 179.95 89.95 3.12 15
9 03/07/2019 09:51:35 81.29, 78.83 88.99 03/07/2019 09:52:23 81.28, 78.71 88.99 2.14 48




NCC Satellite Simultaneous Nadir Overpasses (SNOs) Prediction Service
